Year,Month,Day,Hour,Minute,Value (Times are PST for windspeed in km/hr)
2017,05,24,00,00,6.00
2017,05,24,00,01,6.70
2017,05,24,00,02,6.60
2017,05,24,00,03,8.50
2017,05,24,00,04,3.60
2017,05,24,00,05,2.90
2017,05,24,00,06,2.60
2017,05,24,00,07,4.00
2017,05,24,00,08,6.50
2017,05,24,00,09,7.00
2017,05,24,00,10,3.70
2017,05,24,00,11,3.60
2017,05,24,00,12,6.80
2017,05,24,00,13,3.40
2017,05,24,00,14,5.00
2017,05,24,00,15,11.10
2017,05,24,00,16,8.50
2017,05,24,00,17,5.70
2017,05,24,00,18,4.80
2017,05,24,00,19,4.20
2017,05,24,00,20,5.30
2017,05,24,00,21,2.70
2017,05,24,00,22,3.30
2017,05,24,00,23,2.90
2017,05,24,00,24,3.80
2017,05,24,00,25,1.10
2017,05,24,00,26,1.70
2017,05,24,00,27,1.40
2017,05,24,00,28,2.50
2017,05,24,00,29,4.60
2017,05,24,00,30,3.10
2017,05,24,00,31,4.10
2017,05,24,00,32,2.60
2017,05,24,00,33,3.40
2017,05,24,00,34,2.70
2017,05,24,00,35,5.80
2017,05,24,00,36,7.10
2017,05,24,00,37,5.60
2017,05,24,00,38,4.00
2017,05,24,00,39,2.40
2017,05,24,00,40,2.70
2017,05,24,00,41,5.20
2017,05,24,00,42,3.70
2017,05,24,00,43,3.10
2017,05,24,00,44,3.10
2017,05,24,00,45,3.30
2017,05,24,00,46,4.60
2017,05,24,00,47,1.60
2017,05,24,00,48,4.20
2017,05,24,00,49,7.20
2017,05,24,00,50,2.70
2017,05,24,00,51,2.20
2017,05,24,00,52,4.50
2017,05,24,00,53,1.50
2017,05,24,00,54,2.20
2017,05,24,00,55,5.90
2017,05,24,00,56,4.50
2017,05,24,00,57,2.80
2017,05,24,00,58,2.30
2017,05,24,00,59,5.10
2017,05,24,01,00,3.30
2017,05,24,01,01,2.90
2017,05,24,01,02,0.80
2017,05,24,01,03,2.90
2017,05,24,01,04,3.30
2017,05,24,01,05,2.40
2017,05,24,01,06,1.60
2017,05,24,01,07,3.70
2017,05,24,01,08,3.90
2017,05,24,01,09,1.90
2017,05,24,01,10,3.40
2017,05,24,01,11,0.60
2017,05,24,01,12,0.60
2017,05,24,01,13,1.40
2017,05,24,01,14,1.80
2017,05,24,01,15,5.40
2017,05,24,01,16,3.70
2017,05,24,01,17,1.60
2017,05,24,01,18,2.20
2017,05,24,01,19,1.40
2017,05,24,01,20,2.30
2017,05,24,01,21,3.80
2017,05,24,01,22,2.70
2017,05,24,01,23,4.40
2017,05,24,01,24,8.20
2017,05,24,01,25,5.70
2017,05,24,01,26,4.80
2017,05,24,01,27,6.20
2017,05,24,01,28,5.70
2017,05,24,01,29,5.20
2017,05,24,01,30,4.70
2017,05,24,01,31,4.70
2017,05,24,01,32,4.30
2017,05,24,01,33,4.90
2017,05,24,01,34,2.80
2017,05,24,01,35,2.60
2017,05,24,01,36,4.80
2017,05,24,01,37,5.50
2017,05,24,01,38,3.30
2017,05,24,01,39,3.70
2017,05,24,01,40,3.80
2017,05,24,01,41,1.70
2017,05,24,01,42,3.30
2017,05,24,01,43,3.50
2017,05,24,01,44,3.80
2017,05,24,01,45,2.50
2017,05,24,01,46,2.10
2017,05,24,01,47,4.20
2017,05,24,01,48,3.80
2017,05,24,01,49,1.90
2017,05,24,01,50,2.60
2017,05,24,01,51,3.10
2017,05,24,01,52,3.30
2017,05,24,01,53,2.40
2017,05,24,01,54,2.50
2017,05,24,01,55,2.90
2017,05,24,01,56,2.80
2017,05,24,01,57,2.90
2017,05,24,01,58,3.50
2017,05,24,01,59,3.40
2017,05,24,02,00,3.00
2017,05,24,02,01,3.40
2017,05,24,02,02,2.90
2017,05,24,02,03,6.00
2017,05,24,02,04,3.80
2017,05,24,02,05,4.70
2017,05,24,02,06,5.70
2017,05,24,02,07,6.20
2017,05,24,02,08,5.70
2017,05,24,02,09,5.90
2017,05,24,02,10,2.80
2017,05,24,02,11,3.10
2017,05,24,02,12,3.60
2017,05,24,02,13,2.40
2017,05,24,02,14,3.40
2017,05,24,02,15,3.40
2017,05,24,02,16,3.20
2017,05,24,02,17,3.90
2017,05,24,02,18,3.40
2017,05,24,02,19,4.90
2017,05,24,02,20,3.10
2017,05,24,02,21,6.50
2017,05,24,02,22,4.50
2017,05,24,02,23,3.40
2017,05,24,02,24,4.80
2017,05,24,02,25,5.00
2017,05,24,02,26,4.90
2017,05,24,02,27,7.20
2017,05,24,02,28,5.90
2017,05,24,02,29,5.90
2017,05,24,02,30,3.80
2017,05,24,02,31,4.50
2017,05,24,02,32,4.80
2017,05,24,02,33,4.90
2017,05,24,02,34,5.40
2017,05,24,02,35,5.10
2017,05,24,02,36,5.40
2017,05,24,02,37,5.80
2017,05,24,02,38,6.60
2017,05,24,02,39,3.80
2017,05,24,02,40,8.10
2017,05,24,02,41,6.90
2017,05,24,02,42,4.60
2017,05,24,02,43,4.30
2017,05,24,02,44,3.90
2017,05,24,02,45,4.50
2017,05,24,02,46,4.50
2017,05,24,02,47,2.60
2017,05,24,02,48,1.90
2017,05,24,02,49,3.60
2017,05,24,02,50,2.70
2017,05,24,02,51,1.40
2017,05,24,02,52,1.60
2017,05,24,02,53,1.20
2017,05,24,02,54,2.10
2017,05,24,02,55,2.80
2017,05,24,02,56,2.00
2017,05,24,02,57,2.20
2017,05,24,02,58,3.10
2017,05,24,02,59,1.60
2017,05,24,03,00,2.20
2017,05,24,03,01,2.20
2017,05,24,03,02,0.10
2017,05,24,03,03,2.00
2017,05,24,03,04,5.10
2017,05,24,03,05,2.20
2017,05,24,03,06,1.90
2017,05,24,03,07,1.70
2017,05,24,03,08,2.00
2017,05,24,03,09,1.70
2017,05,24,03,10,2.10
2017,05,24,03,11,1.80
2017,05,24,03,12,2.10
2017,05,24,03,13,4.40
2017,05,24,03,14,4.80
2017,05,24,03,15,2.10
2017,05,24,03,16,4.80
2017,05,24,03,17,4.70
2017,05,24,03,18,4.10
2017,05,24,03,19,4.70
2017,05,24,03,20,4.80
2017,05,24,03,21,5.80
2017,05,24,03,22,5.40
2017,05,24,03,23,4.40
2017,05,24,03,24,2.80
2017,05,24,03,25,4.10
2017,05,24,03,26,3.00
2017,05,24,03,27,2.00
2017,05,24,03,28,3.40
2017,05,24,03,29,2.90
2017,05,24,03,30,2.80
2017,05,24,03,31,2.10
2017,05,24,03,32,5.60
2017,05,24,03,33,3.10
2017,05,24,03,34,3.00
2017,05,24,03,35,2.40
2017,05,24,03,36,3.60
2017,05,24,03,37,2.90
2017,05,24,03,38,1.70
2017,05,24,03,39,1.70
2017,05,24,03,40,3.40
2017,05,24,03,41,1.80
2017,05,24,03,42,0.10
2017,05,24,03,43,2.40
2017,05,24,03,44,2.50
2017,05,24,03,45,2.70
2017,05,24,03,46,2.80
2017,05,24,03,47,1.80
2017,05,24,03,48,1.40
2017,05,24,03,49,0.80
2017,05,24,03,50,1.00
2017,05,24,03,51,0.90
2017,05,24,03,52,1.70
2017,05,24,03,53,0.80
2017,05,24,03,54,0.00
2017,05,24,03,55,0.80
2017,05,24,03,56,1.20
2017,05,24,03,57,0.80
2017,05,24,03,58,2.70
2017,05,24,03,59,3.40
2017,05,24,04,00,4.50
2017,05,24,04,01,3.60
2017,05,24,04,02,4.50
2017,05,24,04,03,5.40
2017,05,24,04,04,3.50
2017,05,24,04,05,3.10
2017,05,24,04,06,4.90
2017,05,24,04,07,3.70
2017,05,24,04,08,5.90
2017,05,24,04,09,5.80
2017,05,24,04,10,5.70
2017,05,24,04,11,6.10
2017,05,24,04,12,5.70
2017,05,24,04,13,4.00
2017,05,24,04,14,3.50
2017,05,24,04,15,3.30
2017,05,24,04,16,3.70
2017,05,24,04,17,2.70
2017,05,24,04,18,2.90
2017,05,24,04,19,4.10
2017,05,24,04,20,2.30
2017,05,24,04,21,2.50
2017,05,24,04,22,2.00
2017,05,24,04,23,2.00
2017,05,24,04,24,1.40
2017,05,24,04,25,1.80
2017,05,24,04,26,3.20
2017,05,24,04,27,3.40
2017,05,24,04,28,3.70
2017,05,24,04,29,5.30
2017,05,24,04,30,6.40
2017,05,24,04,31,5.50
2017,05,24,04,32,2.80
2017,05,24,04,33,2.90
2017,05,24,04,34,3.80
2017,05,24,04,35,3.70
2017,05,24,04,36,5.30
2017,05,24,04,37,4.50
2017,05,24,04,38,2.90
2017,05,24,04,39,2.90
2017,05,24,04,40,2.20
2017,05,24,04,41,3.00
2017,05,24,04,42,4.80
2017,05,24,04,43,4.20
2017,05,24,04,44,4.10
2017,05,24,04,45,3.60
2017,05,24,04,46,3.50
2017,05,24,04,47,3.40
2017,05,24,04,48,1.50
2017,05,24,04,49,2.70
2017,05,24,04,50,2.10
2017,05,24,04,51,3.60
2017,05,24,04,52,4.00
2017,05,24,04,53,3.50
2017,05,24,04,54,1.60
2017,05,24,04,55,1.00
2017,05,24,04,56,1.70
2017,05,24,04,57,1.30
2017,05,24,04,58,1.30
2017,05,24,04,59,2.60
2017,05,24,05,00,2.90
2017,05,24,05,01,2.90
2017,05,24,05,02,3.70
2017,05,24,05,03,3.60
2017,05,24,05,04,3.80
2017,05,24,05,05,3.80
2017,05,24,05,06,2.50
2017,05,24,05,07,3.40
2017,05,24,05,08,2.60
2017,05,24,05,09,2.80
2017,05,24,05,10,3.80
2017,05,24,05,11,1.90
2017,05,24,05,12,2.30
2017,05,24,05,13,3.30
2017,05,24,05,14,1.20
2017,05,24,05,15,1.30
2017,05,24,05,16,1.70
2017,05,24,05,17,2.50
2017,05,24,05,18,2.00
2017,05,24,05,19,3.00
2017,05,24,05,20,3.00
2017,05,24,05,21,2.70
2017,05,24,05,22,1.30
2017,05,24,05,23,1.90
2017,05,24,05,24,2.30
2017,05,24,05,25,2.80
2017,05,24,05,26,2.30
2017,05,24,05,27,2.20
2017,05,24,05,28,2.40
2017,05,24,05,29,2.70
2017,05,24,05,30,2.00
2017,05,24,05,31,2.20
2017,05,24,05,32,3.40
2017,05,24,05,33,4.20
2017,05,24,05,34,2.40
2017,05,24,05,35,0.40
2017,05,24,05,36,1.40
2017,05,24,05,37,1.90
2017,05,24,05,38,1.70
2017,05,24,05,39,1.30
2017,05,24,05,40,0.60
2017,05,24,05,41,2.70
2017,05,24,05,42,3.10
2017,05,24,05,43,1.70
2017,05,24,05,44,2.90
2017,05,24,05,45,4.50
2017,05,24,05,46,5.70
2017,05,24,05,47,5.30
2017,05,24,05,48,3.10
2017,05,24,05,49,2.60
2017,05,24,05,50,6.30
2017,05,24,05,51,5.40
2017,05,24,05,52,4.10
2017,05,24,05,53,3.00
2017,05,24,05,54,0.90
2017,05,24,05,55,1.80
2017,05,24,05,56,2.60
2017,05,24,05,57,3.50
2017,05,24,05,58,3.40
2017,05,24,05,59,3.80
2017,05,24,06,00,3.90
2017,05,24,06,01,3.80
2017,05,24,06,02,3.20
2017,05,24,06,03,3.40
2017,05,24,06,04,2.60
2017,05,24,06,05,1.90
2017,05,24,06,06,2.40
2017,05,24,06,07,2.10
2017,05,24,06,08,1.30
2017,05,24,06,09,0.60
2017,05,24,06,10,0.40
2017,05,24,06,11,0.00
2017,05,24,06,12,0.00
2017,05,24,06,13,0.70
2017,05,24,06,14,1.40
2017,05,24,06,15,1.40
2017,05,24,06,16,1.00
2017,05,24,06,17,1.30
2017,05,24,06,18,0.50
2017,05,24,06,19,0.80
2017,05,24,06,20,1.80
2017,05,24,06,21,0.20
2017,05,24,06,22,0.00
2017,05,24,06,23,0.00
2017,05,24,06,24,0.80
2017,05,24,06,25,1.70
2017,05,24,06,26,1.90
2017,05,24,06,27,1.40
2017,05,24,06,28,0.30
2017,05,24,06,29,0.00
2017,05,24,06,30,0.00
2017,05,24,06,31,0.00
2017,05,24,06,32,0.30
2017,05,24,06,33,0.30
2017,05,24,06,34,0.00
2017,05,24,06,35,1.10
2017,05,24,06,36,1.60
2017,05,24,06,37,1.30
2017,05,24,06,38,0.70
2017,05,24,06,39,0.50
2017,05,24,06,40,1.50
2017,05,24,06,41,0.00
2017,05,24,06,42,0.10
2017,05,24,06,43,2.30
2017,05,24,06,44,4.80
2017,05,24,06,45,2.30
2017,05,24,06,46,0.10
2017,05,24,06,47,2.40
2017,05,24,06,48,1.90
2017,05,24,06,49,3.50
2017,05,24,06,50,0.70
2017,05,24,06,51,1.20
2017,05,24,06,52,3.10
2017,05,24,06,53,2.30
2017,05,24,06,54,0.60
2017,05,24,06,55,0.40
2017,05,24,06,56,0.50
2017,05,24,06,57,0.10
2017,05,24,06,58,0.40
2017,05,24,06,59,0.70
2017,05,24,07,00,0.90
2017,05,24,07,01,0.10
2017,05,24,07,02,2.40
2017,05,24,07,03,1.90
2017,05,24,07,04,4.10
2017,05,24,07,05,4.10
2017,05,24,07,06,5.20
2017,05,24,07,07,4.90
2017,05,24,07,08,1.30
2017,05,24,07,09,0.00
2017,05,24,07,10,1.80
2017,05,24,07,11,2.10
2017,05,24,07,12,4.00
2017,05,24,07,13,3.50
2017,05,24,07,14,4.50
2017,05,24,07,15,4.50
2017,05,24,07,16,4.20
2017,05,24,07,17,4.30
2017,05,24,07,18,3.40
2017,05,24,07,19,2.50
2017,05,24,07,20,0.30
2017,05,24,07,21,0.00
2017,05,24,07,22,1.60
2017,05,24,07,23,1.20
2017,05,24,07,24,0.40
2017,05,24,07,25,0.10
2017,05,24,07,26,0.10
2017,05,24,07,27,0.40
2017,05,24,07,28,1.30
2017,05,24,07,29,2.00
2017,05,24,07,30,2.10
2017,05,24,07,31,0.10
2017,05,24,07,32,1.30
2017,05,24,07,33,2.30
2017,05,24,07,34,3.40
2017,05,24,07,35,3.40
2017,05,24,07,36,5.70
2017,05,24,07,37,4.50
2017,05,24,07,38,2.70
2017,05,24,07,39,1.70
2017,05,24,07,40,2.70
2017,05,24,07,41,3.20
2017,05,24,07,42,2.30
2017,05,24,07,43,3.30
2017,05,24,07,44,3.30
2017,05,24,07,45,2.60
2017,05,24,07,46,2.30
2017,05,24,07,47,2.50
2017,05,24,07,48,4.20
2017,05,24,07,49,2.10
2017,05,24,07,50,3.40
2017,05,24,07,51,1.70
2017,05,24,07,52,2.10
2017,05,24,07,53,2.90
2017,05,24,07,54,3.50
2017,05,24,07,55,4.10
2017,05,24,07,56,6.60
2017,05,24,07,57,6.20
2017,05,24,07,58,1.60
2017,05,24,07,59,1.40
2017,05,24,08,00,3.10
2017,05,24,08,01,4.20
2017,05,24,08,02,5.80
2017,05,24,08,03,4.50
2017,05,24,08,04,3.80
2017,05,24,08,05,2.10
2017,05,24,08,06,0.30
2017,05,24,08,07,3.30
2017,05,24,08,08,2.40
2017,05,24,08,09,3.10
2017,05,24,08,10,3.30
2017,05,24,08,11,1.40
2017,05,24,08,12,0.00
2017,05,24,08,13,1.30
2017,05,24,08,14,1.40
2017,05,24,08,15,1.30
2017,05,24,08,16,0.90
2017,05,24,08,17,0.90
2017,05,24,08,18,4.50
2017,05,24,08,19,5.30
2017,05,24,08,20,4.20
2017,05,24,08,21,1.10
2017,05,24,08,22,1.80
2017,05,24,08,23,2.10
2017,05,24,08,24,3.80
2017,05,24,08,25,5.50
2017,05,24,08,26,6.20
2017,05,24,08,27,7.30
2017,05,24,08,28,7.80
2017,05,24,08,29,6.20
2017,05,24,08,30,7.40
2017,05,24,08,31,5.90
2017,05,24,08,32,4.00
2017,05,24,08,33,4.50
2017,05,24,08,34,2.90
2017,05,24,08,35,3.80
2017,05,24,08,36,1.30
2017,05,24,08,37,5.10
2017,05,24,08,38,6.60
2017,05,24,08,39,4.00
2017,05,24,08,40,5.90
2017,05,24,08,41,4.40
2017,05,24,08,42,2.40
2017,05,24,08,43,1.90
2017,05,24,08,44,1.50
2017,05,24,08,45,3.70
2017,05,24,08,46,3.00
2017,05,24,08,47,1.20
2017,05,24,08,48,2.40
2017,05,24,08,49,2.90
2017,05,24,08,50,5.10
2017,05,24,08,51,2.10
2017,05,24,08,52,3.40
2017,05,24,08,53,5.60
2017,05,24,08,54,2.70
2017,05,24,08,55,3.40
2017,05,24,08,56,3.30
2017,05,24,08,57,7.90
2017,05,24,08,58,8.90
2017,05,24,08,59,4.10
2017,05,24,09,00,2.90
2017,05,24,09,01,6.30
2017,05,24,09,02,4.90
2017,05,24,09,03,3.40
2017,05,24,09,04,3.60
2017,05,24,09,05,2.20
2017,05,24,09,06,4.00
2017,05,24,09,07,5.60
2017,05,24,09,08,3.10
2017,05,24,09,09,1.90
2017,05,24,09,10,2.90
2017,05,24,09,11,6.20
2017,05,24,09,12,5.00
2017,05,24,09,13,4.70
2017,05,24,09,14,3.40
2017,05,24,09,15,3.90
2017,05,24,09,16,3.50
2017,05,24,09,17,4.90
2017,05,24,09,18,4.90
2017,05,24,09,19,3.30
2017,05,24,09,20,2.00
2017,05,24,09,21,3.00
2017,05,24,09,22,1.80
2017,05,24,09,23,3.80
2017,05,24,09,24,4.30
2017,05,24,09,25,2.60
2017,05,24,09,26,2.80
2017,05,24,09,27,1.90
2017,05,24,09,28,3.90
2017,05,24,09,29,8.50
2017,05,24,09,30,9.50
2017,05,24,09,31,7.70
2017,05,24,09,32,10.20
2017,05,24,09,33,10.20
2017,05,24,09,34,8.30
2017,05,24,09,35,9.60
2017,05,24,09,36,9.60
2017,05,24,09,37,7.90
2017,05,24,09,38,10.80
2017,05,24,09,39,7.50
2017,05,24,09,40,7.20
2017,05,24,09,41,10.20
2017,05,24,09,42,9.40
2017,05,24,09,43,10.80
2017,05,24,09,44,10.30
2017,05,24,09,45,11.20
2017,05,24,09,46,10.10
2017,05,24,09,47,7.90
2017,05,24,09,48,10.00
2017,05,24,09,49,11.00
2017,05,24,09,50,6.40
2017,05,24,09,51,5.80
2017,05,24,09,52,6.70
2017,05,24,09,53,5.60
2017,05,24,09,54,6.20
2017,05,24,09,55,12.10
2017,05,24,09,56,16.80
2017,05,24,09,57,10.30
2017,05,24,09,58,8.30
2017,05,24,09,59,10.40
2017,05,24,10,00,10.20
2017,05,24,10,01,14.30
2017,05,24,10,02,14.20
2017,05,24,10,03,11.50
2017,05,24,10,04,11.70
2017,05,24,10,05,10.60
2017,05,24,10,06,10.90
2017,05,24,10,07,17.50
2017,05,24,10,08,15.80
2017,05,24,10,09,16.80
2017,05,24,10,10,18.10
2017,05,24,10,11,12.90
2017,05,24,10,12,14.30
2017,05,24,10,13,16.40
2017,05,24,10,14,16.40
2017,05,24,10,15,14.10
2017,05,24,10,16,19.90
2017,05,24,10,17,13.90
2017,05,24,10,18,17.90
2017,05,24,10,19,12.40
2017,05,24,10,20,12.00
2017,05,24,10,21,14.40
2017,05,24,10,22,16.50
2017,05,24,10,23,20.00
2017,05,24,10,24,16.00
2017,05,24,10,25,13.50
2017,05,24,10,26,16.40
2017,05,24,10,27,14.70
2017,05,24,10,28,7.90
2017,05,24,10,29,13.30
2017,05,24,10,30,17.10
2017,05,24,10,31,14.20
2017,05,24,10,32,16.00
2017,05,24,10,33,15.70
2017,05,24,10,34,4.50
2017,05,24,10,35,5.80
2017,05,24,10,36,14.30
2017,05,24,10,37,18.90
2017,05,24,10,38,20.70
2017,05,24,10,39,18.60
2017,05,24,10,40,14.00
2017,05,24,10,41,7.20
2017,05,24,10,42,9.90
2017,05,24,10,43,13.80
2017,05,24,10,44,22.00
2017,05,24,10,45,15.80
2017,05,24,10,46,13.20
2017,05,24,10,47,17.00
2017,05,24,10,48,18.50
2017,05,24,10,49,15.40
2017,05,24,10,50,13.40
2017,05,24,10,51,11.80
2017,05,24,10,52,8.90
2017,05,24,10,53,12.80
2017,05,24,10,54,12.50
2017,05,24,10,55,14.80
2017,05,24,10,56,15.90
2017,05,24,10,57,13.20
2017,05,24,10,58,17.50
2017,05,24,10,59,15.50
2017,05,24,11,00,15.50
2017,05,24,11,01,17.40
2017,05,24,11,02,17.40
2017,05,24,11,03,17.10
2017,05,24,11,04,13.00
2017,05,24,11,05,18.00
2017,05,24,11,06,16.70
2017,05,24,11,07,13.40
2017,05,24,11,08,14.50
2017,05,24,11,09,12.50
2017,05,24,11,10,16.70
2017,05,24,11,11,21.80
2017,05,24,11,12,18.10
2017,05,24,11,13,22.10
2017,05,24,11,14,21.00
2017,05,24,11,15,21.30
2017,05,24,11,16,17.80
2017,05,24,11,17,17.70
2017,05,24,11,18,20.50
2017,05,24,11,19,20.90
2017,05,24,11,20,19.70
2017,05,24,11,21,21.60
2017,05,24,11,22,19.60
2017,05,24,11,23,23.90
2017,05,24,11,24,20.90
2017,05,24,11,25,21.00
2017,05,24,11,26,20.50
2017,05,24,11,27,17.00
2017,05,24,11,28,17.40
2017,05,24,11,29,20.80
2017,05,24,11,30,20.00
2017,05,24,11,31,22.60
2017,05,24,11,32,25.10
2017,05,24,11,33,23.50
2017,05,24,11,34,20.10
2017,05,24,11,35,20.30
2017,05,24,11,36,19.50
2017,05,24,11,37,27.20
2017,05,24,11,38,23.70
2017,05,24,11,39,18.40
2017,05,24,11,40,14.40
2017,05,24,11,41,13.90
2017,05,24,11,42,17.90
2017,05,24,11,43,17.40
2017,05,24,11,44,20.90
2017,05,24,11,45,19.80
2017,05,24,11,46,24.00
2017,05,24,11,47,20.50
2017,05,24,11,48,21.00
2017,05,24,11,49,21.40
2017,05,24,11,50,17.10
2017,05,24,11,51,22.80
2017,05,24,11,52,26.00
2017,05,24,11,53,26.50
2017,05,24,11,54,23.20
2017,05,24,11,55,19.80
2017,05,24,11,56,19.90
2017,05,24,11,57,18.00
2017,05,24,11,58,12.40
2017,05,24,11,59,18.70
2017,05,24,12,00,21.00
2017,05,24,12,01,20.10
2017,05,24,12,02,20.50
2017,05,24,12,03,14.80
2017,05,24,12,04,17.90
2017,05,24,12,05,21.30
2017,05,24,12,06,19.20
2017,05,24,12,07,23.80
2017,05,24,12,08,22.70
2017,05,24,12,09,23.50
2017,05,24,12,10,23.20
2017,05,24,12,11,22.10
2017,05,24,12,12,19.00
2017,05,24,12,13,25.00
2017,05,24,12,14,24.80
2017,05,24,12,15,24.40
2017,05,24,12,16,21.00
2017,05,24,12,17,32.30
2017,05,24,12,18,27.70
2017,05,24,12,19,24.70
2017,05,24,12,20,28.00
2017,05,24,12,21,24.40
2017,05,24,12,22,26.30
2017,05,24,12,23,21.90
2017,05,24,12,24,26.10
2017,05,24,12,25,27.30
2017,05,24,12,26,26.40
2017,05,24,12,27,25.50
2017,05,24,12,28,22.00
2017,05,24,12,29,30.80
2017,05,24,12,30,22.90
2017,05,24,12,31,23.60
2017,05,24,12,32,25.70
2017,05,24,12,33,26.20
2017,05,24,12,34,28.60
2017,05,24,12,35,25.90
2017,05,24,12,36,30.30
2017,05,24,12,37,30.50
2017,05,24,12,38,29.30
2017,05,24,12,39,23.70
2017,05,24,12,40,23.70
2017,05,24,12,41,25.10
2017,05,24,12,42,25.00
2017,05,24,12,43,26.60
2017,05,24,12,44,29.00
2017,05,24,12,45,32.20
2017,05,24,12,46,23.30
2017,05,24,12,47,24.60
2017,05,24,12,48,21.40
2017,05,24,12,49,29.50
2017,05,24,12,50,33.20
2017,05,24,12,51,27.70
2017,05,24,12,52,25.40
2017,05,24,12,53,27.50
2017,05,24,12,54,27.50
2017,05,24,12,55,29.50
2017,05,24,12,56,28.00
2017,05,24,12,57,24.10
2017,05,24,12,58,21.90
2017,05,24,12,59,24.70
2017,05,24,13,00,29.00
2017,05,24,13,01,24.70
2017,05,24,13,02,26.60
2017,05,24,13,03,26.50
2017,05,24,13,04,26.50
2017,05,24,13,05,21.60
2017,05,24,13,06,29.80
2017,05,24,13,07,24.70
2017,05,24,13,08,28.00
2017,05,24,13,09,24.20
2017,05,24,13,10,27.70
2017,05,24,13,11,22.90
2017,05,24,13,12,23.30
2017,05,24,13,13,27.30
2017,05,24,13,14,22.60
2017,05,24,13,15,25.50
2017,05,24,13,16,19.50
2017,05,24,13,17,20.30
2017,05,24,13,18,17.30
2017,05,24,13,19,20.60
2017,05,24,13,20,26.10
2017,05,24,13,21,24.10
2017,05,24,13,22,18.60
2017,05,24,13,23,18.60
2017,05,24,13,24,17.90
2017,05,24,13,25,15.40
2017,05,24,13,26,18.10
2017,05,24,13,27,17.10
2017,05,24,13,28,24.70
2017,05,24,13,29,21.90
2017,05,24,13,30,23.40
2017,05,24,13,31,20.50
2017,05,24,13,32,23.30
2017,05,24,13,33,26.20
2017,05,24,13,34,21.20
2017,05,24,13,35,25.60
2017,05,24,13,36,25.10
2017,05,24,13,37,22.30
2017,05,24,13,38,26.30
2017,05,24,13,39,19.80
2017,05,24,13,40,25.00
2017,05,24,13,41,20.00
2017,05,24,13,42,19.80
2017,05,24,13,43,23.30
2017,05,24,13,44,31.20
2017,05,24,13,45,26.90
2017,05,24,13,46,28.80
2017,05,24,13,47,29.90
2017,05,24,13,48,25.90
2017,05,24,13,49,22.80
2017,05,24,13,50,27.60
2017,05,24,13,51,25.90
2017,05,24,13,52,29.50
2017,05,24,13,53,20.90
2017,05,24,13,54,28.40
2017,05,24,13,55,28.50
2017,05,24,13,56,25.20
2017,05,24,13,57,30.50
2017,05,24,13,58,20.10
2017,05,24,13,59,24.20
2017,05,24,14,00,17.30
2017,05,24,14,01,24.90
2017,05,24,14,02,23.60
2017,05,24,14,03,26.40
2017,05,24,14,04,24.60
2017,05,24,14,05,28.90
2017,05,24,14,06,29.00
2017,05,24,14,07,34.70
2017,05,24,14,08,25.10
2017,05,24,14,09,28.90
2017,05,24,14,10,24.50
2017,05,24,14,11,25.00
2017,05,24,14,12,23.10
2017,05,24,14,13,31.50
2017,05,24,14,14,29.90
2017,05,24,14,15,28.50
2017,05,24,14,16,30.10
2017,05,24,14,17,23.20
2017,05,24,14,18,19.40
2017,05,24,14,19,20.50
2017,05,24,14,20,18.30
2017,05,24,14,21,21.70
2017,05,24,14,22,17.60
2017,05,24,14,23,19.80
2017,05,24,14,24,21.50
2017,05,24,14,25,17.30
2017,05,24,14,26,22.30
2017,05,24,14,27,22.80
2017,05,24,14,28,21.20
2017,05,24,14,29,22.00
2017,05,24,14,30,20.70
2017,05,24,14,31,27.90
2017,05,24,14,32,29.40
2017,05,24,14,33,18.60
2017,05,24,14,34,19.30
2017,05,24,14,35,25.10
2017,05,24,14,36,21.60
2017,05,24,14,37,28.60
2017,05,24,14,38,28.10
2017,05,24,14,39,22.90
2017,05,24,14,40,23.90
2017,05,24,14,41,23.10
2017,05,24,14,42,27.70
2017,05,24,14,43,24.40
2017,05,24,14,44,26.00
2017,05,24,14,45,24.00
2017,05,24,14,46,25.90
2017,05,24,14,47,21.60
2017,05,24,14,48,19.90
2017,05,24,14,49,20.30
2017,05,24,14,50,24.10
2017,05,24,14,51,29.00
2017,05,24,14,52,23.90
2017,05,24,14,53,21.00
2017,05,24,14,54,22.00
2017,05,24,14,55,22.10
2017,05,24,14,56,21.90
2017,05,24,14,57,21.20
2017,05,24,14,58,22.70
2017,05,24,14,59,19.50
2017,05,24,15,00,15.80
2017,05,24,15,01,24.60
2017,05,24,15,02,20.20
2017,05,24,15,03,19.10
2017,05,24,15,04,21.00
2017,05,24,15,05,21.40
2017,05,24,15,06,24.30
2017,05,24,15,07,21.90
2017,05,24,15,08,20.10
2017,05,24,15,09,20.40
2017,05,24,15,10,22.10
2017,05,24,15,11,24.90
2017,05,24,15,12,20.30
2017,05,24,15,13,16.90
2017,05,24,15,14,25.00
2017,05,24,15,15,19.90
2017,05,24,15,16,22.10
2017,05,24,15,17,12.40
2017,05,24,15,18,13.40
2017,05,24,15,19,15.50
2017,05,24,15,20,13.90
2017,05,24,15,21,14.00
2017,05,24,15,22,22.90
2017,05,24,15,23,20.40
2017,05,24,15,24,18.50
2017,05,24,15,25,16.90
2017,05,24,15,26,19.80
2017,05,24,15,27,25.20
2017,05,24,15,28,24.00
2017,05,24,15,29,17.00
2017,05,24,15,30,18.10
2017,05,24,15,31,17.90
2017,05,24,15,32,16.60
2017,05,24,15,33,16.30
2017,05,24,15,34,7.80
2017,05,24,15,35,12.70
2017,05,24,15,36,16.60
2017,05,24,15,37,17.90
2017,05,24,15,38,19.00
2017,05,24,15,39,18.10
2017,05,24,15,40,26.20
2017,05,24,15,41,22.90
2017,05,24,15,42,18.70
2017,05,24,15,43,16.20
2017,05,24,15,44,14.30
2017,05,24,15,45,11.40
2017,05,24,15,46,11.30
2017,05,24,15,47,9.80
2017,05,24,15,48,15.80
2017,05,24,15,49,21.50
2017,05,24,15,50,21.50
2017,05,24,15,51,20.90
2017,05,24,15,52,22.40
2017,05,24,15,53,22.20
2017,05,24,15,54,20.40
2017,05,24,15,55,15.20
2017,05,24,15,56,21.70
2017,05,24,15,57,14.40
2017,05,24,15,58,11.90
2017,05,24,15,59,14.20
2017,05,24,16,00,13.70
2017,05,24,16,01,12.80
2017,05,24,16,02,22.00
2017,05,24,16,03,20.40
2017,05,24,16,04,17.00
2017,05,24,16,05,21.00
2017,05,24,16,06,14.90
2017,05,24,16,07,13.20
2017,05,24,16,08,17.40
2017,05,24,16,09,26.30
2017,05,24,16,10,18.40
2017,05,24,16,11,19.90
2017,05,24,16,12,11.40
2017,05,24,16,13,13.10
2017,05,24,16,14,18.30
2017,05,24,16,15,12.00
2017,05,24,16,16,19.30
2017,05,24,16,17,16.90
2017,05,24,16,18,15.60
2017,05,24,16,19,19.30
2017,05,24,16,20,13.50
2017,05,24,16,21,17.80
2017,05,24,16,22,16.70
2017,05,24,16,23,20.80
2017,05,24,16,24,19.90
2017,05,24,16,25,17.30
2017,05,24,16,26,20.60
2017,05,24,16,27,21.40
2017,05,24,16,28,22.00
2017,05,24,16,29,22.90
2017,05,24,16,30,16.90
2017,05,24,16,31,18.20
2017,05,24,16,32,11.20
2017,05,24,16,33,15.80
2017,05,24,16,34,17.10
2017,05,24,16,35,19.80
2017,05,24,16,36,19.60
2017,05,24,16,37,12.70
2017,05,24,16,38,11.90
2017,05,24,16,39,22.40
2017,05,24,16,40,21.10
2017,05,24,16,41,19.50
2017,05,24,16,42,16.40
2017,05,24,16,43,12.00
2017,05,24,16,44,16.60
2017,05,24,16,45,23.10
2017,05,24,16,46,21.20
2017,05,24,16,47,23.40
2017,05,24,16,48,18.30
2017,05,24,16,49,19.10
2017,05,24,16,50,16.10
2017,05,24,16,51,18.30
2017,05,24,16,52,19.10
2017,05,24,16,53,19.80
2017,05,24,16,54,21.70
2017,05,24,16,55,12.30
2017,05,24,16,56,15.10
2017,05,24,16,57,10.70
2017,05,24,16,58,15.50
2017,05,24,16,59,16.50
2017,05,24,17,00,14.30
2017,05,24,17,01,15.50
2017,05,24,17,02,18.40
2017,05,24,17,03,20.50
2017,05,24,17,04,14.40
2017,05,24,17,05,14.60
2017,05,24,17,06,19.10
2017,05,24,17,07,14.60
2017,05,24,17,08,8.80
2017,05,24,17,09,13.00
2017,05,24,17,10,11.70
2017,05,24,17,11,13.10
2017,05,24,17,12,15.60
2017,05,24,17,13,13.00
2017,05,24,17,14,13.00
2017,05,24,17,15,16.90
2017,05,24,17,16,20.10
2017,05,24,17,17,21.30
2017,05,24,17,18,18.40
2017,05,24,17,19,22.10
2017,05,24,17,20,21.40
2017,05,24,17,21,11.90
2017,05,24,17,22,19.50
2017,05,24,17,23,21.90
2017,05,24,17,24,22.90
2017,05,24,17,25,19.10
2017,05,24,17,26,23.90
2017,05,24,17,27,25.70
2017,05,24,17,28,21.00
2017,05,24,17,29,20.20
2017,05,24,17,30,14.40
2017,05,24,17,31,10.80
2017,05,24,17,32,14.80
2017,05,24,17,33,16.50
2017,05,24,17,34,17.60
2017,05,24,17,35,23.20
2017,05,24,17,36,18.40
2017,05,24,17,37,14.00
2017,05,24,17,38,19.00
2017,05,24,17,39,22.50
2017,05,24,17,40,13.40
2017,05,24,17,41,18.30
2017,05,24,17,42,16.10
2017,05,24,17,43,13.20
2017,05,24,17,44,16.30
2017,05,24,17,45,16.40